Regional Weather Roundup
Issued by NWS

Home | Current Version | Previous Version | Text Only | Print | Product List | Glossary Off
Versions: 1 2 3 4 5 6 7 8 9 10 11 12 13 14 15 16 17 18 19 20 21 22 23 24 25 26 27 28 29 30 31 32 33 34 35 36 37 38 39 40 41 42 43 44 45 46 47 48 49 50

000
ASUS45 KPSR 281600
RWRAZ

ARIZONA REGIONAL HOURLY WEATHER ROUNDUP
NATIONAL WEATHER SERVICE PHOENIX AZ
900 AM MST SAT MAR 28 2015

NOTE: FAIR INDICATES FEW OR NO CLOUDS BELOW 12,000 FEET WITH NO
SIGNIFICANT WEATHER AND/OR OBSTRUCTIONS TO VISIBILITY.

AZZ001>003-036-281700-
NORTHWEST ARIZONA

CITY           SKY/WX    TMP DP  RH WIND       PRES   REMARKS
KINGMAN        SUNNY     70  27  20 CALM      30.18R
$$

AZZ004>008-015-016-018-281700-
NORTH CENTRAL ARIZONA

CITY           SKY/WX    TMP DP  RH WIND       PRES   REMARKS
GRAND CANYON   SUNNY     59  23  25 VRB5      30.32R
WILLIAMS       SUNNY     59  19  21 CALM      30.39R
PRESCOTT       SUNNY     61  24  24 CALM      30.27R
FLAGSTAFF      NOT AVBL
PAGE           SUNNY     61  24  24 CALM      30.21R
$$

AZZ009>014-017-281700-
NORTHEAST ARIZONA

CITY           SKY/WX    TMP DP  RH WIND       PRES   REMARKS
WINSLOW        NOT AVBL
SAINT JOHNS    SUNNY     57  21  24 CALM      30.29S
WINDOW ROCK    SUNNY     53  22  29 CALM      30.32F
$$

AZZ023-281700-
GREATER PHOENIX AREA

CITY           SKY/WX    TMP DP  RH WIND       PRES   REMARKS
PHOENIX        SUNNY     73  31  21 E8        30.08R
GLENDALE       SUNNY     72  34  25 CALM      30.10R
DEER VALLEY    SUNNY     72  29  20 CALM      30.09R
SCOTTSDALE     SUNNY     71  33  24 CALM      30.10R
MESA-FALCON    SUNNY     70  28  21 N9          N/A
MESA-GATEWAY   SUNNY     68  32  26 SE3       30.11R
CHANDLER       SUNNY     70  30  23 CALM      30.09R
$$

AZZ027-028-281700-
SOUTHWEST MARICOPA COUNTY AND PINAL COUNTY

CITY           SKY/WX    TMP DP  RH WIND       PRES   REMARKS
CASA GRANDE    SUNNY     70  30  23 CALM      30.08S
$$

AZZ503-504-507>509-281700-
SOUTHEAST ARIZONA

CITY           SKY/WX    TMP DP  RH WIND       PRES   REMARKS
TUCSON         SUNNY     70  26  19 S8        30.17S
RYAN FIELD       N/A     72  32  23 E6        30.15
NOGALES        SUNNY     67  26  21 S5        30.22S
SAFFORD        SUNNY     63  26  24 CALM      30.19S
$$

AZZ020-021-025-026-031-281700-
SOUTHWEST ARIZONA

CITY           SKY/WX    TMP DP  RH WIND       PRES   REMARKS
YUMA           SUNNY     77  35  21 CALM      30.02R
$$

CAZ031-033-041-043-047-048-061-281700-
SOUTHERN CALIFORNIA

CITY           SKY/WX    TMP DP  RH WIND       PRES   REMARKS
DOWNTOWN L.A.  MOSUNNY   64  59  83 CALM      30.07R HAZE
L.A. AIRPORT   PTSUNNY   62  59  90 CALM      30.08R FOG
SAN DIEGO      MOSUNNY   65  53  65 CALM      30.08F
BURBANK        SUNNY     65  47  52 CALM      30.08R
ONTARIO        SUNNY     69  36  29 SE5       30.09R
RIVERSIDE      SUNNY     67  40  37 CALM      30.09S
PALM SPRINGS   SUNNY     78  37  22 CALM      30.03S
EL CENTRO NAS  SUNNY     78  35  21 SW6       30.00R
IMPERIAL       SUNNY     76  41  28 CALM      29.99S
BLYTHE         SUNNY     69  36  29 E3        30.04R
$$

NVZ020-UTZ003-281700-
SOUTHERN NEVADA-UTAH

CITY           SKY/WX    TMP DP  RH WIND       PRES   REMARKS
LAS VEGAS      NOT AVBL
SALT LAKE CITY MOSUNNY   60  32  34 SE8       30.10R
$$

NMZ009-TXZ055-281700-
NEW MEXICO-WEST TEXAS

CITY           SKY/WX    TMP DP  RH WIND       PRES   REMARKS
ALBUQUERQUE    SUNNY     57  23  26 W6        30.28R
EL PASO        SUNNY     64  22  20 CALM      30.19R
$$


........................KEY........................
SKY/WX - SKY CONDITION/WEATHER
TMP    - TEMPERATURE IN FAHRENHEIT
DP     - DEW POINT IN FAHRENHEIT
RH     - RELATIVE HUMIDITY IN PERCENT
WIND   - DIRECTION AND SPEED IN MILES PER HOUR (MPH)
VRB    - VARIABLE WIND DIRECTION
PRES   - MEAN SEA LEVEL PRESSURE IN INCHES OF MERCURY
         F - FALLING PRESSURE   R - RISING PRESSURE
         S - STEADY PRESSURE
VSB    - VISIBILITY IN MILES
HX     - HEAT INDEX IN FAHRENHEIT
WCI    - WIND CHILL INDEX IN FAHRENHEIT
TC     - TEMPERATURE IN CELSIUS WHICH IS ALSO KNOWN AS
         TEMPERATURE IN CENTIGRADE
AFB    - AIR FORCE BASE
         LUKE AFB IS LUKE AIR FORCE BASE
         DAVIS-MONTHAN IS DAVIS-MONTHAN AIR FORCE BASE
NAS    - NAVAL AIR STATION
         EL CENTRO NAS IS EL CENTRO NAVAL AIR STATION
N/A    - NOT AVAILABLE




USA.gov is the U.S. government's official web portal to all federal, state and local government web resources and services.